Imperial, CA

4:24 PM PDT on June 20, 2018 (GMT -0700)
Imperial County

Weather History for KIPL - October, 2017

Change the Weather History Date:

Sunday, October 8, 2017

  Actual Average Record
Temperature  
Mean Temperature 80 °F -  
Max Temperature 99 °F 92 °F 107 °F (1996)
Min Temperature 62 °F 64 °F 52 °F (1970)
Cooling Degree Days 15    
Growing Degree Days 30 (Base 50)    
Moisture  
Dew Point 36 °F    
Average Humidity 21    
Maximum Humidity 32    
Minimum Humidity 9    
Precipitation  
Precipitation 0.00 in - - ()
Sea Level Pressure  
Sea Level Pressure 29.61 in    
Wind  
Wind Speed 8 mph (SSW)    
Max Wind Speed 16 mph    
Max Gust Speed 26 mph    
Visibility 10 miles    
Events      
Averages and records for this station are not official NWS values.
T = Trace of Precipitation, MM = Missing Value Source: NWS Daily Summary

Daily Weather History Graph

Daily Weather History Graph

Search for Another Location

Airport or City:

Astronomy

Oct. 08, 2017 Rise Set
Actual Time 6:41 AM PDT 6:17 PM PDT
Civil Twilight 6:16 AM PDT 6:42 PM PDT
Nautical Twilight 5:48 AM PDT 7:10 PM PDT
Astronomical Twilight 5:19 AM PDT 7:39 PM PDT
Moon 8:50 PM PDT (10/8) 9:41 AM PDT (10/8)
Length of Visible Light 12h 25m
Length of Day
11h 35m
Waning Gibbous, 88% of the Moon is Illuminated
Oct 8
Waning Gibbous
Oct 12
Last Quarter
Oct 19
New
Oct 27
First Quarter
Nov 3
Full

Hourly Weather History & Observations

Time (PDT) Temp. Dew Point Humidity Pressure Visibility Wind Dir Wind Speed Gust Speed Precip Events Conditions
12:53 AM 72.0 °F 28.9 °F 20% 29.64 in 10.0 mi WSW 5.8 mph - N/A   Clear
1:53 AM 70.0 °F 30.0 °F 23% 29.64 in 10.0 mi SW 3.5 mph - N/A   Clear
2:53 AM 66.9 °F 35.1 °F 31% 29.63 in 10.0 mi WSW 4.6 mph - N/A   Clear
3:53 AM 64.9 °F 34.0 °F 32% 29.63 in 10.0 mi WSW 6.9 mph - N/A   Clear
4:53 AM 64.9 °F 28.9 °F 26% 29.62 in 10.0 mi South 4.6 mph - N/A   Clear
5:53 AM 62.1 °F 32.0 °F 32% 29.64 in 10.0 mi SW 3.5 mph - N/A   Clear
6:53 AM 64.0 °F 30.9 °F 29% 29.63 in 6.0 mi SSE 10.4 mph - N/A   Haze
7:53 AM 71.1 °F 33.1 °F 25% 29.65 in 7.0 mi SSE 4.6 mph - N/A   Clear
8:53 AM 79.0 °F 33.1 °F 19% 29.67 in 10.0 mi SSE 10.4 mph - N/A   Clear
9:53 AM 84.0 °F 37.0 °F 19% 29.67 in 10.0 mi SSE 10.4 mph - N/A   Clear
10:53 AM 89.1 °F 37.9 °F 16% 29.65 in 10.0 mi ESE 13.8 mph - N/A   Clear
11:53 AM 91.9 °F 42.1 °F 18% 29.63 in 10.0 mi ESE 12.7 mph - N/A   Clear
12:53 PM 93.9 °F 43.0 °F 17% 29.61 in 10.0 mi East 10.4 mph - N/A   Clear
1:53 PM 96.1 °F 41.0 °F 15% 29.57 in 10.0 mi SE 6.9 mph - N/A   Clear
2:53 PM 98.1 °F 37.9 °F 12% 29.55 in 10.0 mi South 8.1 mph - N/A   Partly Cloudy
3:53 PM 98.1 °F 30.9 °F 9% 29.54 in 10.0 mi SW 6.9 mph - N/A   Scattered Clouds
4:53 PM 97.0 °F 37.9 °F 13% 29.54 in 9.0 mi WSW 15.0 mph 26.5 mph N/A   Mostly Cloudy
5:53 PM 90.0 °F 42.1 °F 19% 29.54 in 10.0 mi WSW 16.1 mph - N/A   Scattered Clouds
6:53 PM 84.9 °F 42.1 °F 22% 29.55 in 10.0 mi WSW 10.4 mph - N/A   Clear
7:53 PM 81.0 °F 36.0 °F 20% 29.56 in 10.0 mi West 15.0 mph - N/A   Clear
8:53 PM 78.1 °F 36.0 °F 22% 29.57 in 10.0 mi West 12.7 mph - N/A   Clear
9:53 PM 77.0 °F 37.0 °F 24% 29.58 in 10.0 mi WNW 10.4 mph - N/A   Clear
10:53 PM 75.0 °F 36.0 °F 24% 29.61 in 10.0 mi West 5.8 mph - N/A   Clear
11:53 PM 73.0 °F 34.0 °F 24% 29.63 in 10.0 mi Calm Calm - N/A   Clear